OpenBCM V2.0.2 (Linux)

Packet Radio Mailbox

IZ3LSV

[San Dona' di P. JN]

 Login: GUEST





  
LU9DCE > KEPS     14.07.18 19:28l 252 Lines 12467 Bytes #999 (0) @ WW
BID : 10485_LU9DCE
Read: GUEST
Subj: SAT TLE 12 07 2018
Path: IZ3LSV<IW8PGT<IR2UBX<DB0RES<DB0OVN<DB0GOS<ON0AR<VK6HGR<XQ8FGC<CX2SA<
      OK2PEN<LU9DCE
Sent: 180712/0701Z 10485@LU9DCE.TOR.BA.ARG.SOAM BPQ6.0.16


            __    _  _  ___  ____   ___  ____    ____  ____  ____
           (  )  / )( \/ _ \(    \ / __)(  __)  (  _ \(  _ \/ ___)
           / (_/\) \/ (\__  )) D (( (__  ) _)    ) _ ( ) _ (\___ \
           \____/\____/(___/(____/ \___)(____)  (____/(____/(____/
               ESTACION DE PACKET RADIO - BUENOS AIRES (GF05OM)
                   BOLETINES INFORMATIVOS PROGRAMADOS (BIP)
                    LU9DCE@GMX.COM - RF 145070 @ 1200 BAUD
                   AXIP NETROM -- LU9DCE.DYNU.COM UDP 10093

+------------------------------------------------------------------------------+
OSCAR 7
1  7530U 74089B   18192.90242868 -.00000051 +00000-0 -39472-4 0  9990
2  7530 101.6885 159.8540 0011716 288.8822 084.8149 12.53633321997460
OSCAR 11 (UoSAT 2)
1 14781U 84021B   18192.56006700 +.00000050 +00000-0 +12284-4 0  9997
2 14781 097.6472 227.7344 0008700 013.6233 346.5215 14.83016444848056
OSCAR 19 (LUSAT)
1 20442U 90005G   18192.86204317 -.00000018  00000-0  95775-5 0  9996
2 20442  98.6108 131.2033 0012959  78.5382 281.7257 14.32899628487427
EYESAT A
1 22825U 93061C   18192.91938119 -.00000016 +00000-0 +11523-4 0  9994
2 22825 098.8642 169.4853 0007284 275.9433 084.0918 14.30034348292832
ITAMSAT
1 22826U 93061D   18192.93047505 -.00000013 +00000-0 +12630-4 0  9994
2 22826 098.8582 169.5312 0007804 263.9320 096.0973 14.30366036293047
RADIO ROSTO
1 23439U 94085A   18192.45272760 -.00000039 +00000-0 +96892-4 0  9992
2 23439 064.8182 309.5895 0156597 177.7137 247.0644 11.27567478969309
JAS 2
1 24278U 96046B   18192.48402522 -.00000027 +00000-0 +69781-5 0  9992
2 24278 098.5165 027.8893 0351182 048.0071 315.0419 13.53084667081270
TECHSAT 1B
1 25397U 98043D   18192.91132898 -.00000022 +00000-0 +92881-5 0  9990
2 25397 098.6507 132.9423 0000880 010.8657 349.2540 14.23648174039021
ISS (ZARYA)
1 25544U 98067A   18193.23435133  .00008226  00000-0  13208-3 0  9991
2 25544  51.6396 253.8728 0003847 305.2337 163.9651 15.53973896122419
PCSAT
1 26931U 01043C   18192.89540079 -.00000058 +00000-0 +94936-5 0  9992
2 26931 067.0502 165.6541 0008010 271.0038 089.0146 14.30510468876013
SAUDISAT 1C
1 27607U 02058C   18192.88366259 -.00000044  00000-0  14571-4 0  9996
2 27607  64.5555  14.5442 0067793 323.0429  36.6012 14.75463532836600
CUTE-1
1 27844U 03031E   18192.93512885 +.00000040 +00000-0 +38014-4 0  9998
2 27844 098.6861 201.2258 0008728 304.5991 055.4363 14.22122168779672
CUBESAT XI 4
1 27848U 03031J   18192.97173418  .00000032  00000-0  34352-4 0  9993
2 27848  98.6946 201.6681 0008798 316.0783  43.9694 14.21725315779589
MOZHAYETS 4
1 27939U 03042A   18192.94987514 +.00000066 +00000-0 +20293-4 0  9999
2 27939 097.9939 331.4488 0014289 072.5736 039.4710 14.66699850790300
CUBESAT XI 5
1 28895U 05043F   18192.88865091 +.00000068 +00000-0 +21925-4 0  9997
2 28895 097.9122 343.3475 0016606 356.4319 003.6763 14.63560933677255
CUTE-1.7+APD II
1 32785U 08021C   18192.92644807 +.00000164 +00000-0 +23448-4 0  9993
2 32785 097.5464 203.9231 0012064 322.2631 037.7739 14.88143089552783
DELFI C3
1 32789U 08021G   18192.22884920 +.00001481 +00000-0 +10523-3 0  9994
2 32789 097.5104 246.4283 0011712 209.0031 151.0547 15.06145500555301
SEEDS
1 32791U 08021J   18192.50480202 +.00000226 +00000-0 +28517-4 0  9992
2 32791 097.5352 208.9349 0011944 301.5147 058.4904 14.90582902553058
YUBELEINY
1 32953U 08025A   18192.90898710 +.00000028 +00000-0 +13167-3 0  9991
2 32953 082.5032 357.3005 0019640 153.8691 206.3384 12.43084247459841
PRISM (HITOMI)
1 33493U 09002B   18192.77805979 +.00000030 +00000-0 +83423-5 0  9994
2 33493 098.1294 095.8144 0013765 235.1276 124.8599 14.96260716514028
KKS-1 (KISEKI)
1 33499U 09002H   18192.93381672 +.00000061 +00000-0 +17091-4 0  9998
2 33499 098.3567 015.5040 0008546 206.9603 153.1162 14.75343252508404
SWISSCUBE
1 35932U 09051B   18192.89852426 +.00000087 +00000-0 +30743-4 0  9998
2 35932 098.5484 344.6566 0008664 129.2773 230.9193 14.56174366466995
BEESAT
1 35933U 09051C   18192.92400002 +.00000072 +00000-0 +27296-4 0  9995
2 35933 098.5523 346.2461 0006677 139.0401 221.1298 14.56276733467069
ITUPSAT 1
1 35935U 09051E   18192.92401641 +.00000062 +00000-0 +25353-4 0  9998
2 35935 098.5635 346.4985 0009050 137.0450 223.1455 14.55452428466891
XIWANG-1 (HOPE-1)
1 36122U 09072B   18192.94214043 -.00000043 +00000-0 -24586-5 0  9999
2 36122 100.0744 206.4184 0008163 058.6322 301.5589 13.16345276411804
TISAT 1
1 36799U 10035E   18193.08411500  .00000211  00000-0  27478-4 0  9990
2 36799  98.1097 329.9642 0013586 123.7651 236.4862 14.90830215433861
JUGNU
1 37839U 11058B   18192.58982133 +.00000313 +00000-0 +24821-4 0  9993
2 37839 019.9605 249.2802 0018950 155.2076 357.6064 14.12623152348719
SRMSAT
1 37841U 11058D   18192.63918752  .00000296  00000-0  17659-4 0  9999
2 37841  19.9725 298.6895 0012031  39.2971  91.2250 14.10609564348339
M-CUBED/EXP-1 PRIME
1 37855U 11061F   18192.88024384 +.00000894 +00000-0 +53518-4 0  9992
2 37855 101.7152 268.0423 0176225 009.2086 351.2287 15.04526376364897
HORYU 2
1 38340U 12025D   18192.96102945 +.00000143 +00000-0 +29023-4 0  9993
2 38340 098.3647 215.5304 0012653 128.1284 232.1067 14.75573010320357
STRAND 1
1 39090U 13009E   18192.86224072 +.00000048 +00000-0 +32235-4 0  9997
2 39090 098.5197 038.9230 0008352 218.6778 141.3810 14.35032544281341
SOMP
1 39134U 13015E   18192.95137931 +.00000742 +00000-0 +44488-4 0  9994
2 39134 064.8640 046.7980 0009255 216.1872 143.8630 15.19241954288286
BEESAT 3
1 39135U 13015F   18192.94811779 +.00000597 +00000-0 +40207-4 0  9996
2 39135 064.8697 060.4870 0018989 237.8836 122.0447 15.16740102288016
BEESAT 2
1 39136U 13015G   18192.92655974 +.00000428 +00000-0 +32125-4 0  9991
2 39136 064.8701 063.4106 0020341 233.6531 126.2717 15.16203435287950
CUBEBUG 1
1 39153U 13018D   18192.91144126 +.00000120 +00000-0 +22712-4 0  9994
2 39153 097.9799 288.0170 0016038 222.3873 137.6100 14.80411532281169
ZACUBE
1 39417U 13066B   18192.50335333  .00000137  00000-0  23645-4 0  9991
2 39417  97.5855 219.8419 0060686  76.0028 284.7923 14.80951437250394
TRITON 1
1 39427U 13066M   18192.91210180 +.00000157 +00000-0 +32927-4 0  9994
2 39427 097.6422 187.2037 0114010 179.3697 180.7673 14.67684819248015
GOMX 1
1 39430U 13066Q   18192.92253547 +.00000129 +00000-0 +32768-4 0  9995
2 39430 097.6990 168.0179 0150005 252.3506 106.1267 14.59096397246577
HUMSAT D
1 39433U 13066T   18192.85617930  .00000257  00000-0  30672-4 0  9994
2 39433  97.6019 248.3674 0030905   3.4432 356.6994 14.91894680252105
CUBEBUG 2
1 39440U 13066AA  18193.02584762  .00000159  00000-0  28961-4 0  9997
2 39440  97.6004 206.7861 0081956 114.4239 246.5550 14.75689688249588
FUNCUBE 1
1 39444U 13066AE  18192.95916423 +.00000216 +00000-0 +32999-4 0  9995
2 39444 097.5863 221.8298 0059737 069.9651 290.7981 14.81736541248733
UWE-3
1 39446U 13066AG  18192.53219418 +.00000172 +00000-0 +29437-4 0  9995
2 39446 097.5915 212.6903 0071813 096.2650 264.6748 14.78224120248120
SPROUT
1 39770U 14029E   18192.88766448 +.00000488 +00000-0 +60712-4 0  9994
2 39770 097.8760 293.7288 0010127 123.4592 236.7579 14.86890981224035
UNISAT 6
1 40012U 14033C   18192.58744061 +.00000151 +00000-0 +29984-4 0  9997
2 40012 097.8051 067.9516 0059689 119.9577 240.7576 14.73835767218293
DUCHIFAT 1
1 40021U 14033M   18192.83344484  .00000248  00000-0  31386-4 0  9996
2 40021  97.9155 111.5971 0014506  96.0257 264.2614 14.90334855220624
QB50P1
1 40025U 14033R   18192.81450723 +.00000157 +00000-0 +22798-4 0  9998
2 40025 097.9044 108.1625 0013954 102.4353 257.8426 14.88735103219948
CHUBUSAT 1
1 40300U 14070C   18192.82603946  .00000583  00000-0  28781-4 0  9994
2 40300  97.3619 269.9928 0020122 172.2931 326.8410 15.21614472204026
NUDT-PHONESAT
1 40900U 15049B   18192.90382647 +.00001619 +00000-0 +75123-4 0  9991
2 40900 097.4405 200.8709 0011944 307.9783 052.0373 15.21429718155670
ZDPS 2A
1 40901U 15049C   18193.07503446  .00000666  00000-0  36934-4 0  9991
2 40901  97.4583 199.0323 0012445 316.8681  43.1576 15.17139951155434
ZDPS 2B
1 40902U 15049D   18192.85422689  .00000694  00000-0  38541-4 0  9993
2 40902  97.4484 196.7979 0012470 314.5024  45.5189 15.16934106155384
XW-2A
1 40903U 15049E   18192.85926432 +.00001509 +00000-0 +39117-4 0  9995
2 40903 097.3823 227.9586 0012606 305.6931 054.3141 15.40598771157605
KAITUO 1A
1 40904U 15049F   18192.77869094  .00000139  00000-0  10947-4 0  9995
2 40904  97.4584 195.9041 0013701 318.8558 127.5940 15.15048891155220
OBJECT G
1 40905U 15049G   18192.93414864 +.00000301 +00000-0 +20149-4 0  9991
2 40905 097.4588 194.0912 0014485 309.3235 050.6712 15.13999900155169
XW-2C
1 40906U 15049H   18192.95087803 +.00000479 +00000-0 +28939-4 0  9994
2 40906 097.4597 195.9886 0013664 308.4904 051.5102 15.15231283155248
XW-2D
1 40907U 15049J   18192.96687262 +.00000517 +00000-0 +30851-4 0  9990
2 40907 097.4572 195.6984 0012975 306.1536 053.8495 15.15385293155250
LILACSAT 2
1 40908U 15049K   18192.93750581 +.00000266 +00000-0 +18444-4 0  9998
2 40908 097.4684 194.9962 0014694 307.9503 052.0400 15.13535875155119
XW-2F
1 40910U 15049M   18192.96179818 +.00000777 +00000-0 +43143-4 0  9993
2 40910 097.4571 197.0534 0013583 301.0437 058.9462 15.16597217155331
XW-2B
1 40911U 15049N   18192.85323423  .00000526  00000-0  31382-4 0  9999
2 40911  97.4607 196.1338 0012900 307.2754  52.7301 15.15328130155133
KAITUO 1B
1 40912U 15049P   18192.79348853  .00000912  00000-0  47020-4 0  9992
2 40912  97.4502 199.7722 0013685 288.2826 157.8815 15.18821945155405
TIANWANG 1C (TW-1C)
1 40926U 15051B   18193.06654229  .00006275  00000-0  11578-3 0  9994
2 40926  97.1817 235.2957 0009643 175.2954 240.1097 15.49422486157162
